User: anonymous   Login
Location: Bergnershof
(48.9468°N, 10.9431°E)
Time: 15:56:05
(UTC+00:00)
Language:

Sich 1 - Orbit

View from above orbital plane
View from above orbital plane
View from above satellite
View from above satellite

Ground track
Ground track

The orbit data is extracted from the following two-line orbital elements,

1 23657U 95046A   21132.40381973  .00000168  00000-0  16166-4 0  9990
2 23657  82.5282   1.4843 0023195  45.6170 314.6941 14.86284987389145
Epoch (UTC): 12 May 2021 09:41:30
Eccentricity: 0.0023195
inclination: 82.5282°
perigee height: 593 km
apogee height: 626 km
right ascension of ascending node: 1.4843°
argument of perigee: 45.6170°
revolutions per day: 14.86284987
mean anomaly at epoch: 314.6941°
orbit number at epoch: 38914

The dashed part of the orbit path shows where the satellite is in the earth's shadow,  

DLR